{"data":{"norad_id":56142,"epoch":"2026-09-20T08:15:27.108864Z","epoch_age_seconds":122230,"freshness":"FRESH","line1":"1 56142U 23046BC  26263.34406376 -.00000221  00000+0  14858-5 0  9991","line2":"2 56142  43.0041 127.3703 0001277 271.4942  88.5763 15.27578433191970","mean_motion":15.27578433,"eccentricity":0.0001277,"inclination_deg":43.0041,"raan_deg":127.3703,"arg_perigee_deg":271.4942,"mean_anomaly_deg":88.5763,"bstar":1.4858e-6,"rev_number":19197,"period_min":94.266845413102,"perigee_km":482.17761414173,"apogee_km":483.92996226904,"semimajor_km":6861.1907882054,"source":"CELESTRAK","updated_at":"2026-09-21T09:00:33.390054Z"}}